www.pogodaiklimat.ru

Погода и климат >> Архив погоды >> Оман >> Diba


ПОГОДА в Diba

  • Прогноз погоды в Diba
  • Монитор погоды в Diba
  • Климат города

АРХИВ ПОГОДЫ в Diba

Время (UTC), дата Ветер
(напр.,м/с)
 
Видим.   Явления Облачность Т
(С)
Тd
(С)
f
(%)
Тe
(С)
Тes
(С)
Комфортность P
(гПа)
Po
(гПа)
Тmin
(С)
Tmax
(С)
R
(мм)
R24
(мм)
S
(см)
00 14.05 Ю 6 н/о н/о +31.6 +20.8 53 +39 +39 очень
душно
1004.0 1001.6
03 14.05 Ю 7 н/о н/о +30.8 +22.1 60 +40 +40 очень
душно
1005.8 1003.3
06 14.05 Ю 6 н/о н/о +36.4 +15.7 29 +38 +38 очень
душно
1007.2 1004.8 +30.4
09 14.05 ЮЗ 7 н/о н/о +40.2 +3.1 10 +37 +37 очень
жарко
1006.5 1004.1
12 14.05 ЮЗ 4 н/о н/о +41.4 -4.8 5 +37 +37 очень
жарко
1004.8 1002.5
15 14.05 ЮЗ 3 н/о н/о +38.6 -5.0 6 +34 +34 очень
жарко
1005.0 1002.6
18 14.05 Ю 5 н/о н/о +35.3 -1.5 10 +32 +32 жарко 1006.5 1004.1 +42.2
21 14.05 ЮЗ 3 н/о н/о +33.3 -2.9 10 +30 +30 жарко 1005.2 1002.7
00 15.05 ЮЗ 5 н/о н/о +32.8 -3.3 10 +29 +29 жарко 1004.6 1002.2
03 15.05 СЗ 2 н/о н/о +33.4 +2.2 14 +30 +30 жарко 1006.9 1004.4
06 15.05 СВ 2 н/о н/о +34.1 +20.7 46 +41 +41 опасность
перегрева
1008.0 1005.6 +31.7
09 15.05 СВ 4 н/о н/о +34.9 +22.5 49 +44 +44 опасность
перегрева
1006.9 1004.5
12 15.05 СВ 2 н/о н/о +34.6 +19.7 42 +40 +40 очень
душно
1005.1 1002.7
15 15.05 С 2 н/о н/о +32.9 +18.6 43 +38 +38 очень
душно
1005.5 1003.0
18 15.05 Ю 1 н/о н/о +33.0 +9.1 23 +32 +32 жарко 1006.7 1004.2 +36.4
21 15.05 Ю 4 н/о н/о +33.8 +3.8 15 +31 +31 жарко 1005.4 1003.0
00 16.05 ЮЗ 4 н/о н/о +32.6 +6.5 20 +31 +31 жарко 1004.5 1002.1
03 16.05 Ю 8 н/о н/о +31.6 +14.0 34 +33 +33 жарко 1006.8 1004.3
06 16.05 З 4 н/о н/о +34.2 +9.8 22 +33 +33 жарко 1009.7 1007.3 +30.7
09 16.05 ЮЗ 9 н/о н/о +37.5 +9.8 19 +36 +36 очень
жарко
1007.6 1005.2
12 16.05 ЮЗ 5 н/о н/о +38.9 +6.8 14 +36 +36 очень
жарко
1006.2 1003.8
15 16.05 ЮЗ 7 н/о н/о +35.8 +4.5 14 +33 +33 жарко 1006.0 1003.5
18 16.05 З 11 н/о н/о +34.7 +2.3 13 +32 +32 жарко 1006.3 1003.9 +39.8
21 16.05 З 9 н/о н/о +35.6 -7.3 6 +31 +31 жарко 1005.5 1003.1
00 17.05 З 6 н/о н/о +35.0 -1.5 10 +31 +31 жарко 1005.3 1002.8
03 17.05 З 6 н/о н/о +34.8 +9.3 21 +31 +31 жарко 1007.0 1004.6
06 17.05 СВ 5 н/о н/о +34.3 +19.2 41 +39 +39 очень
душно
1008.2 1005.8 +33.2
09 17.05 СВ 4 н/о н/о +34.7 +22.3 49 +44 +44 опасность
перегрева
1008.2 1005.8
12 17.05 СВ 3 н/о н/о +33.3 +21.3 49 +41 +41 опасность
перегрева
1007.1 1004.6
15 17.05 С 3 н/о н/о +30.9 +21.9 59 +40 +40 очень
душно
1006.5 1004.1
18 17.05 ЮЗ 2 н/о н/о +33.5 +16.4 36 +31 +31 жарко 1008.3 1005.9 +35.0
21 17.05 Ю 4 н/о н/о +32.2 +11.1 27 +32 +32 жарко 1006.7 1004.3
00 18.05 ЮЗ 7 н/о н/о +31.6 +12.0 30 +32 +32 жарко 1006.0 1003.6
03 18.05 СВ 1 н/о н/о +31.5 +9.9 26 +31 +31 жарко 1007.1 1004.6
06 18.05 С 4 н/о н/о +34.4 +16.0 33 +37 +37 очень
душно
1008.2 1005.8 +30.2
09 18.05 СВ 6 н/о н/о +33.0 +21.4 51 +41 +41 опасность
перегрева
1007.7 1005.2
12 18.05 СВ 4 н/о н/о +32.7 +21.6 52 +41 +41 опасность
перегрева
1006.5 1004.1
15 18.05 З 1 н/о н/о +32.5 +11.9 28 +33 +33 жарко 1006.5 1004.0
18 18.05 Ю 4 н/о н/о +32.4 +13.9 33 +34 +34 очень
жарко
1006.6 1004.2 +35.2
21 18.05 Ю 5 н/о н/о +29.4 +16.0 44 +32 +32 душно 1007.5 1005.1
00 19.05 Ю 4 н/о н/о +28.2 +17.8 53 +33 +33 очень
душно
1007.9 1005.4
03 19.05 Ю 2 н/о н/о +28.9 +16.5 47 +32 +32 душно 1009.2 1006.7
06 19.05 СВ 4 н/о н/о +33.9 +14.8 32 +36 +36 душно 1010.1 1007.7 +27.5
09 19.05 СВ 4 н/о н/о +35.1 +15.4 31 +37 +37 очень
душно
1009.4 1006.9
12 19.05 СВ 3 н/о н/о +34.7 +11.2 24 +34 +34 очень
жарко
1007.9 1005.4
15 19.05 В 1 н/о н/о +32.8 +12.3 29 +33 +33 жарко 1007.3 1004.8
18 19.05 С 1 н/о н/о +29.3 +11.6 33 +30 +30 жарко 1007.8 1005.3 +36.2
21 19.05 ЮЗ 2 н/о н/о +32.5 +8.8 23 +31 +31 жарко 1007.5 1005.1
00 20.05 штиль 0 н/о н/о +28.2 +24.5 80 +40 +40 очень
душно
1008.3 1005.8
03 20.05 Ю 2 н/о н/о +29.7 +22.3 65 +39 +39 очень
душно
1009.8 1007.4
06 20.05 В 3 н/о н/о +35.5 +12.2 25 +35 +35 очень
жарко
1010.8 1008.4 +26.6
09 20.05 СВ 5 н/о н/о +36.3 +11.9 23 +36 +36 очень
жарко
1009.8 1007.4
12 20.05 СВ 4 н/о н/о +38.8 -9.6 4 +34 +34 очень
жарко
1008.2 1005.8
15 20.05 С 3 н/о н/о +32.7 +9.6 24 +32 +32 жарко 1008.1 1005.7
18 20.05 штиль 0 н/о н/о +28.0 +13.7 41 +30 +30 жарко 1008.8 1006.3 +39.5

 

Местоположение метеостанции Diba (Оман): широта 25.62 долгота 56.25 высота над уровнем моря 20 м.

В архиве по умолчанию представлена погода в Diba за последнюю неделю. Архивные данные за месяц целиком и за предыдущие месяцы, начиная с января 2011 года, Вы можете получить, выбрав интересующий диапазон дат из раскрывающегося списка и нажав кнопку "Ввод!".


*Определитесь, кто Вы:
робот инопланетянин человек

Внимание! Время в таблицах - всемирное. Для получения местного времени необходимо прибавить поправку, которая в Diba равна 4 ч.

Смотрите также архив погоды в соседних городах и на ближайших метеорологических станциях:

Погода в Ras Al Khaimah Int Airport (ОАЭ) (32 км)
Погода в Fujairah (ОАЭ) (58 км)
Погода в Khasab Airport (Оман) (61 км)
Погода в Khasab (Оман) (66 км)
Погода в Sharjah (ОАЭ) (80 км)
Погода в Dubai (ОАЭ) (101 км)
Погода в Sohar Majis (Оман) (134 км)
Погода в Dubai Al Maktoum Int Airport (ОАЭ) (136 км)
Погода в Abu Musa Island (Иран) (144 км)
Погода в Jask (Иран) (152 км)

Пояснения к столбцам:

Ветер - указаны скорость ветра в м/с - средняя за 10 мин, порывы в срок и между сроками (в фигурных скобках) и направление, откуда дует ветер: С - северный, СВ - северо-восточный, В - восточный, ЮВ - юго-восточный, Ю - южный, ЮЗ - юго-западный, З - западный, СЗ - северо-западный.
Видимость - горизонтальная дальность видимости в метрах или километрах. При видимости от 1 до 10 км при отсутствии осадков обычно наблюдается дымка, при ухудшении видимости до 1 км и менее - туман. В сухую погоду видимость может ухудшаться дымом, пылью или мглою.
Явления - указаны атмосферные явления, наблюдавшиеся в срок или в последний час перед сроком; фигурными скобками обозначены явления, наблюдавшиеся между сроками (за 1-3 часа до срока); квадратными скобками обозначены град или гололедные отложения с указанием их диаметра в мм.
Облачность - указаны через наклонную черту общая и нижняя облачность в баллах и высота нижней границы облаков в метрах; квадратными скобками обозначены формы облаков: Ci - перистые, Cs - перисто-слоистые, Cc - перисто-кучевые, Ac - высококучевые, As - высокослоистые, Sc - слоисто-кучевые, Ns - слоисто-дождевые, Cu - кучевые, Cb - кучево-дождевые. Подробнее классификацию облаков см. в Атласе облаков (PDF).
T - Температура воздуха - температура, измеренная на высоте 2 м над землей.
Td - Температура точки росы - температура, при понижении до которой содержащийся в воздухе водяной пар достигнет насыщения.
f - Относительная влажность воздуха - влажноcть воздуха, измеренная на высоте 2 м над землей.
Te - Эффективная температура - температура, которую ощущает одетый по сезону человек в тени. Характеристика душности погоды. При расчете учитывается влияние влажности воздуха и скорости ветра на теплоощущения человека.
Tes - Эффективная температура на солнце - температура, которую ощущает человек, с поправкой на солнечный нагрев. Характеристика знойности погоды. Зависит от высоты солнца над горизонтом, облачности и скорости ветра. Ночью, в пасмурную погоду, а также при ветре 12 м/с и более поправка равна нулю.
P - Атмосферное давление - приведенное к уровню моря атмосферное давление.
Po - Атмосферное давление - измеренное на уровне метеостанции атмосферное давление.
Tmin - Минимальная температура - минимум температуры воздуха на высоте 2 м над землей.
Tmax - Максимальная температура - максимум температуры воздуха на высоте 2 м над землей.
R - Количество осадков - Количество выпавших осадков за период времени, мм. При наведении курсора мыши на число - период времени, за который выпало указанное количество осадков.
R24 - Количество осадков - Количество выпавших осадков за 24 часа, мм.
S - Снежный покров - Высота снежного покрова, см. При наведении курсора мыши на число - состояние снежного покрова и степень покрытия местности в баллах.